| time (UTC) | temp F | wind direction | speed MPH | gust MPH | rain 1hr in | rain 24hr in | rain mn in | humidity % | barometer mb |
| 20260507212528 | 49 | 315 | 3.0 | 3.0 | 0.00 | 0.00 | 0.00 | 74 | 1020.4 |
| 20260507211028 | 49 | 337 | 3.0 | 3.0 | 0.00 | 0.00 | 0.00 | 73 | 1020.2 |
| 20260507205528 | 49 | 315 | 3.0 | 3.0 | 0.00 | 0.00 | 0.00 | 72 | 1020.1 |
| 20260507204028 | 50 | 315 | 0.0 | 2.0 | 0.00 | 0.00 | 0.00 | 71 | 1020.1 |
| 20260507202528 | 51 | 315 | 1.0 | 2.0 | 0.00 | 0.00 | 0.00 | 71 | 1020.0 |
| 20260507201028 | 51 | 292 | 1.0 | 2.0 | 0.00 | 0.00 | 0.00 | 70 | 1019.7 |
| 20260507195528 | 51 | 337 | 0.0 | 0.0 | 0.00 | 0.00 | 0.00 | 68 | 1019.6 |
| 20260507194028 | 52 | 292 | 0.0 | 0.0 | 0.00 | 0.00 | 0.00 | 65 | 1019.4 |
| 20260507192528 | 53 | 292 | 0.0 | 0.0 | 0.00 | 0.00 | 0.00 | 64 | 1019.1 |
| 20260507191028 | 55 | 292 | 0.0 | 0.0 | 0.00 | 0.00 | 0.00 | 60 | 1019.0 |
| 20260507185528 | 57 | 315 | 0.0 | 0.0 | 0.00 | 0.00 | 0.00 | 58 | 1018.7 |
| 20260507184028 | 59 | 292 | 1.0 | 1.0 | 0.00 | 0.00 | 0.00 | 55 | 1018.4 |
| 20260507182528 | 60 | 270 | 4.0 | 4.0 | 0.00 | 0.00 | 0.00 | 53 | 1018.1 |
| 20260507181028 | 61 | 315 | 4.0 | 8.0 | 0.00 | 0.00 | 0.00 | 51 | 1017.9 |
| 20260507175528 | 64 | 292 | 8.0 | 8.0 | 0.00 | 0.00 | 0.00 | 48 | 1017.6 |
| 20260507174028 | 68 | 270 | 0.0 | 3.0 | 0.00 | 0.00 | 0.00 | 45 | 1017.3 |
| 20260507172528 | 69 | 270 | 6.0 | 6.0 | 0.00 | 0.00 | 0.00 | 45 | 1017.1 |
| 20260507171028 | 68 | 270 | 0.0 | 3.0 | 0.00 | 0.00 | 0.00 | 46 | 1017.1 |
| 20260507165528 | 68 | 270 | 3.0 | 3.0 | 0.00 | 0.00 | 0.00 | 47 | 1017.2 |
| 20260507164028 | 68 | 225 | 0.0 | 4.0 | 0.00 | 0.00 | 0.00 | 46 | 1017.2 |
| 20260507162528 | 69 | 292 | 11.0 | 11.0 | 0.00 | 0.00 | 0.00 | 45 | 1017.3 |
| 20260507161028 | 70 | 247 | 1.0 | 8.0 | 0.00 | 0.00 | 0.00 | 43 | 1017.2 |
| 20260507155528 | 70 | 270 | 1.0 | 1.0 | 0.00 | 0.00 | 0.00 | 43 | 1017.1 |
| 20260507154028 | 69 | 247 | 8.0 | 8.0 | 0.00 | 0.00 | 0.00 | 45 | 1017.1 |
| 20260507152528 | 69 | 292 | 4.0 | 6.0 | 0.00 | 0.00 | 0.00 | 44 | 1017.1 |
| 20260507151028 | 71 | 247 | 0.0 | 3.0 | 0.00 | 0.00 | 0.00 | 43 | 1017.0 |
| 20260507145528 | 71 | 225 | 2.0 | 6.0 | 0.00 | 0.00 | 0.00 | 43 | 1016.9 |
| 20260507144028 | 71 | 225 | 1.0 | 2.0 | 0.00 | 0.00 | 0.00 | 42 | 1017.0 |
| 20260507142528 | 72 | 247 | 3.0 | 13.0 | 0.00 | 0.00 | 0.00 | 41 | 1017.0 |
| 20260507141028 | 72 | 292 | 5.0 | 8.0 | 0.00 | 0.00 | 0.00 | 41 | 1016.9 |
| 20260507135528 | 73 | 247 | 2.0 | 5.0 | 0.00 | 0.00 | 0.00 | 40 | 1016.8 |
| 20260507134028 | 73 | 247 | 12.0 | 12.0 | 0.00 | 0.00 | 0.00 | 39 | 1016.8 |
| 20260507132528 | 73 | 202 | 0.0 | 4.0 | 0.00 | 0.00 | 0.00 | 39 | 1016.7 |
| 20260507131028 | 73 | 292 | 4.0 | 4.0 | 0.00 | 0.00 | 0.00 | 40 | 1016.6 |
| 20260507125528 | 72 | 225 | 7.0 | 7.0 | 0.00 | 0.00 | 0.00 | 41 | 1016.7 |
| 20260507124028 | 73 | 292 | 5.0 | 5.0 | 0.00 | 0.00 | 0.00 | 40 | 1016.6 |
| 20260507122528 | 73 | 270 | 10.0 | 10.0 | 0.00 | 0.00 | 0.00 | 40 | 1016.3 |
| 20260507121028 | 74 | 202 | 1.0 | 3.0 | 0.00 | 0.00 | 0.00 | 39 | 1016.4 |
| 20260507115528 | 74 | 135 | 3.0 | 6.0 | 0.00 | 0.00 | 0.00 | 39 | 1016.7 |
| 20260507114028 | 72 | 292 | 6.0 | 9.0 | 0.00 | 0.00 | 0.00 | 41 | 1016.9 |
| 20260507112528 | 72 | 292 | 16.0 | 16.0 | 0.00 | 0.00 | 0.00 | 40 | 1016.9 |
| 20260507111028 | 74 | 270 | 13.0 | 13.0 | 0.00 | 0.00 | 0.00 | 39 | 1016.9 |
| 20260507105528 | 75 | 292 | 6.0 | 6.0 | 0.00 | 0.00 | 0.00 | 38 | 1017.0 |
| 20260507104028 | 75 | 247 | 6.0 | 6.0 | 0.00 | 0.00 | 0.00 | 38 | 1017.0 |
| 20260507102528 | 73 | 0 | 4.0 | 4.0 | 0.00 | 0.00 | 0.00 | 39 | 1017.1 |
| 20260507101028 | 75 | 270 | 4.0 | 12.0 | 0.00 | 0.00 | 0.00 | 37 | 1017.1 |
| 20260507095528 | 76 | 225 | 3.0 | 9.0 | 0.00 | 0.00 | 0.00 | 35 | 1017.3 |
| 20260507094028 | 80 | 202 | 2.0 | 8.0 | 0.00 | 0.00 | 0.00 | 34 | 1017.1 |
| 20260507092529 | 82 | 292 | 9.0 | 14.0 | 0.00 | 0.00 | 0.00 | 33 | 1017.1 |
| 20260507091029 | 77 | 292 | 1.0 | 14.0 | 0.00 | 0.00 | 0.00 | 35 | 1017.1 |
| 20260507085529 | 83 | 315 | 11.0 | 11.0 | 0.00 | 0.00 | 0.00 | 32 | 1017.1 |
| 20260507084029 | 84 | 292 | 2.0 | 6.0 | 0.00 | 0.00 | 0.00 | 32 | 1017.0 |
| 20260507082529 | 82 | 247 | 8.0 | 8.0 | 0.00 | 0.00 | 0.00 | 33 | 1016.8 |
| 20260507081029 | 86 | 292 | 1.0 | 12.0 | 0.00 | 0.00 | 0.00 | 29 | 1016.7 |
| 20260507075529 | 87 | 247 | 2.0 | 4.0 | 0.00 | 0.00 | 0.00 | 31 | 1016.5 |
| 20260507074029 | 88 | 270 | 14.0 | 14.0 | 0.00 | 0.00 | 0.00 | 31 | 1016.4 |
| 20260507072529 | 85 | 337 | 2.0 | 8.0 | 0.00 | 0.00 | 0.00 | 32 | 1016.5 |
| 20260507071029 | 84 | 292 | 0.0 | 5.0 | 0.00 | 0.00 | 0.00 | 33 | 1016.5 |
| 20260507065529 | 85 | 337 | 5.0 | 5.0 | 0.00 | 0.00 | 0.00 | 33 | 1016.6 |
| 20260507064029 | 88 | 270 | 1.0 | 14.0 | 0.00 | 0.00 | 0.00 | 32 | 1016.7 |
| 20260507062529 | 87 | 292 | 3.0 | 3.0 | 0.00 | 0.00 | 0.00 | 34 | 1016.7 |
| 20260507061029 | 87 | 247 | 2.0 | 2.0 | 0.00 | 0.00 | 0.00 | 35 | 1016.7 |
| 20260507055529 | 75 | 247 | 0.0 | 5.0 | 0.00 | 0.00 | 0.00 | 50 | 1016.7 |
| 20260507054029 | 64 | 270 | 0.0 | 2.0 | 0.00 | 0.00 | 0.00 | 65 | 1016.6 |
| 20260507052529 | 57 | 315 | 0.0 | 0.0 | 0.00 | 0.00 | 0.00 | 78 | 1016.4 |
| 20260507051029 | 53 | 315 | 0.0 | 0.0 | 0.00 | 0.00 | 0.00 | 80 | 1016.4 |
| 20260507045529 | 50 | 292 | 0.0 | 0.0 | 0.00 | 0.00 | 0.00 | 82 | 1016.3 |
| 20260507044029 | 49 | 292 | 2.0 | 2.0 | 0.00 | 0.00 | 0.00 | 81 | 1016.0 |
| 20260507042529 | 48 | 292 | 0.0 | 0.0 | 0.00 | 0.00 | 0.00 | 81 | 1016.1 |
| 20260507041029 | 49 | 270 | 0.0 | 0.0 | 0.00 | 0.00 | 0.00 | 80 | 1015.7 |
| 20260507035529 | 49 | 180 | 0.0 | 0.0 | 0.00 | 0.00 | 0.00 | 80 | 1015.7 |
| 20260507034029 | 50 | 180 | 1.0 | 1.0 | 0.00 | 0.00 | 0.00 | 80 | 1015.5 |
| 20260507032529 | 49 | 180 | 2.0 | 2.0 | 0.00 | 0.00 | 0.00 | 80 | 1015.3 |
| 20260507031029 | 49 | 270 | 0.0 | 0.0 | 0.00 | 0.00 | 0.00 | 79 | 1015.2 |
| 20260507025529 | 49 | 247 | 0.0 | 0.0 | 0.00 | 0.00 | 0.00 | 79 | 1015.1 |
| 20260507024030 | 50 | 292 | 0.0 | 0.0 | 0.00 | 0.00 | 0.00 | 78 | 1015.1 |
| 20260507022529 | 50 | 247 | 1.0 | 1.0 | 0.00 | 0.00 | 0.00 | 78 | 1015.1 |
| 20260507021029 | 50 | 247 | 0.0 | 0.0 | 0.00 | 0.00 | 0.00 | 77 | 1015.1 |
| 20260507015529 | 50 | 292 | 0.0 | 0.0 | 0.00 | 0.00 | 0.00 | 77 | 1015.1 |
| 20260507014029 | 51 | 292 | 0.0 | 0.0 | 0.00 | 0.00 | 0.00 | 75 | 1014.9 |
| 20260507012529 | 53 | 270 | 0.0 | 0.0 | 0.00 | 0.00 | 0.00 | 75 | 1014.9 |
| 20260507011029 | 53 | 270 | 2.0 | 7.0 | 0.00 | 0.00 | 0.00 | 75 | 1014.8 |
| 20260507005529 | 54 | 292 | 2.0 | 2.0 | 0.00 | 0.00 | 0.00 | 75 | 1014.6 |
| 20260507004029 | 53 | 270 | 6.0 | 6.0 | 0.00 | 0.00 | 0.00 | 75 | 1014.5 |
| 20260507002529 | 54 | 292 | 0.0 | 0.0 | 0.00 | 0.00 | 0.00 | 74 | 1014.5 |
| 20260507001029 | 54 | 270 | 0.0 | 2.0 | 0.00 | 0.00 | 0.00 | 74 | 1014.7 |
| 20260506235529 | 55 | 270 | 0.0 | 0.0 | 0.00 | 0.00 | 0.00 | 75 | 1014.7 |
| 20260506234029 | 55 | 225 | 2.0 | 2.0 | 0.00 | 0.00 | 0.00 | 75 | 1014.5 |
| 20260506232529 | 55 | 247 | 2.0 | 2.0 | 0.00 | 0.00 | 0.00 | 74 | 1014.4 |
| 20260506231029 | 55 | 247 | 3.0 | 6.0 | 0.00 | 0.00 | 0.00 | 75 | 1014.4 |
| 20260506225529 | 55 | 225 | 2.0 | 6.0 | 0.00 | 0.00 | 0.00 | 75 | 1014.0 |
| 20260506224029 | 56 | 270 | 4.0 | 5.0 | 0.00 | 0.00 | 0.00 | 75 | 1013.7 |
| 20260506222529 | 56 | 270 | 7.0 | 7.0 | 0.00 | 0.00 | 0.00 | 76 | 1013.7 |
| 20260506221029 | 56 | 247 | 1.0 | 10.0 | 0.00 | 0.00 | 0.00 | 76 | 1013.4 |
| 20260506215529 | 56 | 270 | 0.0 | 2.0 | 0.00 | 0.00 | 0.00 | 76 | 1013.0 |
| 20260506214029 | 56 | 202 | 3.0 | 3.0 | 0.00 | 0.00 | 0.00 | 77 | 1013.0 |